Roda de Ter - l'Esquerda





Hora UTC 04:40
Temperatura 13.1 ºC
Humedad 94.0 %
Presión 1017.4 hPa
Pluja 0.0 mm
Velocidad viento 0.0 km/h
Dirección viento NNE

Datos diarios 2020-05-30



Hora UTC (invierno +1h; verano +2h)
Temperatura (ºC) Humedad (%) Presión (hPa) Velocidad viento (km/h) Precipitación (mm)
Hora UTC Aire Humedad Presión Vel. Dir. Vel. Max Dir. Intent. máx 5 min.
00:05 12.3 93.0 1017.6 0.0 E 0.0 0.0
00:10 12.2 93.0 1017.7 0.0 E 1.6 0.0
00:15 12.3 94.0 1017.6 0.0 E 1.6 0.0
00:20 12.3 94.0 1017.6 0.0 E 1.6 0.0
00:25 12.1 93.0 1017.7 3.2 SSE 6.4 0.0
00:30 12.3 94.0 1017.6 1.6 SSE 4.8 0.0
00:35 12.4 94.0 1017.7 1.6 SSE 3.2 0.0
00:40 12.4 94.0 1017.6 0.0 SSE 3.2 0.0
00:40 12.5 94.0 1017.7 0.0 SSE 3.2 0.0
00:50 12.8 94.0 1017.7 0.0 SSE 1.6 0.0
00:55 12.9 94.0 1017.6 0.0 SSE 1.6 0.0
01:00 13.1 94.0 1017.5 0.0 SSE 0.0 0.0
01:05 13.1 94.0 1017.5 0.0 SSE 1.6 0.0
01:10 13.1 94.0 1017.6 0.0 SSE 1.6 0.0
01:15 13.1 94.0 1017.6 0.0 SSE 1.6 0.0
01:20 13.1 94.0 1017.6 0.0 SSE 1.6 0.0
01:25 13.1 94.0 1017.7 0.0 SSE 1.6 0.0
01:30 13.1 94.0 1017.6 0.0 SSE 3.2 0.0
01:35 13.2 94.0 1017.6 0.0 SSE 3.2 0.0
01:40 13.2 94.0 1017.6 3.2 SSE 3.2 0.0
01:40 13.1 94.0 1017.6 1.6 SSE 4.8 0.0
01:50 13.1 94.0 1017.5 1.6 SSE 4.8 0.0
01:55 13.1 94.0 1017.6 0.0 SSE 3.2 0.0
02:00 13.1 94.0 1017.6 1.6 SSE 3.2 0.0
02:05 13.1 94.0 1017.7 3.2 SSE 6.4 0.0
02:10 13.2 94.0 1017.6 3.2 SSE 4.8 0.0
02:15 13.2 94.0 1017.6 1.6 SSE 4.8 0.0
02:20 13.2 94.0 1017.6 3.2 SSE 3.2 0.0
02:25 13.2 94.0 1017.6 3.2 S 4.8 0.0
02:30 13.2 94.0 1017.6 4.8 S 6.4 0.0
02:35 13.1 94.0 1017.5 1.6 S 6.4 0.0
02:40 13.1 94.0 1017.6 1.6 S 4.8 0.0
02:40 12.9 94.0 1017.7 1.6 S 4.8 0.0
02:50 12.9 94.0 1017.6 1.6 S 3.2 0.0
02:55 12.9 94.0 1017.6 0.0 S 3.2 0.0
03:00 12.9 94.0 1017.5 3.2 S 4.8 0.0
03:05 12.9 94.0 1017.5 0.0 S 4.8 0.0
03:10 12.9 94.0 1017.5 0.0 S 3.2 0.0
03:15 13.0 94.0 1017.4 0.0 S 3.2 0.0
03:20 13.1 94.0 1017.5 0.0 NNE 3.2 0.0
03:25 13.2 94.0 1017.5 0.0 NNE 3.2 0.0
03:30 13.2 94.0 1017.4 1.6 NNE 1.6 0.0
03:35 13.2 94.0 1017.4 0.0 N 3.2 0.0
03:40 13.2 94.0 1017.5 0.0 NNE 3.2 0.0
03:45 13.2 94.0 1017.5 0.0 NNE 1.6 0.0
03:50 13.2 94.0 1017.5 0.0 NNE 3.2 0.0
03:55 13.3 94.0 1017.4 0.0 NNE 3.2 0.0
04:00 13.3 94.0 1017.4 0.0 NNE 1.6 0.0
04:05 13.2 94.0 1017.5 0.0 NNE 3.2 0.0
04:10 13.3 94.0 1017.3 0.0 NNE 3.2 0.0
04:10 13.3 94.0 1017.3 1.6 NNE 1.6 0.0
04:20 13.2 94.0 1017.4 0.0 NNE 3.2 0.0
04:25 13.1 94.0 1017.4 0.0 NNE 3.2 0.0
04:30 13.1 94.0 1017.3 0.0 NNE 3.2 0.0
04:35 13.1 94.0 1017.3 1.6 NNE 3.2 0.0
04:40 13.1 94.0 1017.4 0.0 NNE 1.6 0.0
Máxima 13.3 94.0 1017.7 4.8 S 6.4 0.0
Mínima 12.0 93.0 1017.3
Total 0.0